This is the latest recevied weather packets stored in our database for station/object SQ7RAF-15. If no packets are shown the sender has not sent any weather packets the latest 10 day(s).
| Time | Temp. | Humidity | Pressure | Rain* | Wind** | Luminosity | Snow |
|---|---|---|---|---|---|---|---|
| 1778238328 | 10.56° C | 85% | 1018.3 hPa | 0 mm | - | 175 W/m² | - |
| 1778238040 | 10° C | 85% | 1018.3 hPa | 0 mm | - | 144 W/m² | - |
| 1778237720 | 10.56° C | 85% | 1018.3 hPa | 0 mm | - | 153 W/m² | - |
| 1778237433 | 10.56° C | 85% | 1018.3 hPa | 0 mm | - | 168 W/m² | - |
| 1778237144 | 10.56° C | 85% | 1018.2 hPa | 0 mm | - | 128 W/m² | - |
| 1778236825 | 10.56° C | 85% | 1018.3 hPa | 0 mm | - | 94 W/m² | - |
| 1778236521 | 10° C | 85% | 1018.2 hPa | 0 mm | - | 92 W/m² | - |
| 1778236232 | 10.56° C | 85% | 1018.2 hPa | 0 mm | - | 114 W/m² | - |
| 1778235944 | 10.56° C | 85% | 1018.2 hPa | 0 mm | - | 104 W/m² | - |
| 1778235624 | 10.56° C | 85% | 1018.2 hPa | 0 mm | - | 122 W/m² | - |
| 1778235336 | 10.56° C | 84% | 1018.1 hPa | 0 mm | - | 134 W/m² | - |
| 1778235032 | 10.56° C | 84% | 1018.2 hPa | 0 mm | - | 140 W/m² | - |
| 1778234733 | 10° C | 85% | 1018.1 hPa | 0 mm | - | 161 W/m² | - |
| 1778234424 | 10° C | 85% | 1018.2 hPa | 0 mm | - | 155 W/m² | - |
| 1778234133 | 10° C | 85% | 1018.2 hPa | 0 mm | - | 125 W/m² | - |
| 1778233833 | 10° C | 85% | 1018.3 hPa | 0 mm | - | 103 W/m² | - |
| 1778233545 | 10° C | 85% | 1018.2 hPa | 0 mm | - | 87 W/m² | - |
| 1778233225 | 10° C | 85% | 1018.3 hPa | 0 mm | - | 80 W/m² | - |
| 1778232648 | 10° C | 86% | 1018.3 hPa | 0 mm | - | 81 W/m² | - |
| 1778232040 | 10° C | 86% | 1018.1 hPa | 0 mm | - | 77 W/m² | - |
| 1778229032 | 10° C | 86% | 1017.8 hPa | 0 mm | - | 88 W/m² | - |
| 1778228744 | 10° C | 87% | 1017.8 hPa | 0 mm | - | 88 W/m² | - |
| 1778228424 | 9.44° C | 87% | 1017.7 hPa | 0 mm | - | 99 W/m² | - |
| 1778228136 | 10° C | 86% | 1017.6 hPa | 0 mm | - | 110 W/m² | - |
| 1778227849 | 10° C | 86% | 1017.5 hPa | 0 mm | - | 109 W/m² | - |
* Rain latest hour (hover to see other rain measurements)
** Current wind speed in m/s (hover to see current wind gust speed)